EW5390 Weather Reports


Display with metric or nautical units.
time (UTC)temp
F
wind
direction
speed
MPH
gust
MPH
rain 1hr
in
rain 24hr
in
rain mn
in
humidity
%
barometer
mb
20260504174054 70 341 1.0 5.0 0.00 0.01 0.01 39 1012.8
20260504173550 70 295 1.0 7.0 0.00 0.01 0.01 38 1013.0
20260504173113 70 315 1.0 7.0 0.00 0.01 0.01 38 1013.0
20260504172554 69 311 3.0 7.0 0.00 0.01 0.01 39 1013.1
20260504172053 69 119 2.0 5.0 0.00 0.01 0.01 38 1013.2
20260504171558 69 314 1.0 5.0 0.00 0.01 0.01 38 1013.3
20260504171054 69 55 1.0 5.0 0.00 0.01 0.01 39 1013.2
20260504170551 69 312 1.0 4.0 0.00 0.01 0.01 40 1013.3
20260504151055 67 308 1.0 5.0 0.00 0.01 0.01 47 1014.2
20260504150555 67 316 2.0 5.0 0.00 0.01 0.01 47 1014.2
20260504141055 64 307 2.0 5.0 0.00 0.01 0.01 59 1014.6
20260504140556 64 316 1.0 5.0 0.00 0.01 0.01 59 1014.5
20260504140128 64 298 1.0 5.0 0.00 0.01 0.01 61 1014.5
20260504130555 58 336 1.0 3.0 0.00 0.01 0.01 78 1015.2
20260504120112 53 0 0.0 2.0 0.00 0.01 0.01 87 1015.6
20260504110557 51 158 0.0 2.0 0.00 0.01 0.01 89 1015.8
20260504100553 50 0 0.0 0.0 0.00 0.01 0.01 89 1015.9
20260504081555 48 0 0.0 1.0 0.00 0.00 0.00 83 1016.0
20260504081054 48 0 0.0 1.0 0.00 0.00 0.00 83 1016.1
20260504080554 48 154 0.0 1.0 0.00 0.00 0.00 83 1016.0
20260504050554 46 0 0.0 0.0 0.00 0.00 0.00 71 1016.2
20260504050136 46 0 0.0 0.0 0.00 0.00 0.00 71 1016.2
20260504045553 46 0 0.0 0.0 0.00 0.00 0.00 70 1016.2
20260504045053 46 0 0.0 0.0 0.00 0.00 0.00 70 1016.2
20260504044558 46 0 0.0 0.0 0.00 0.00 0.00 69 1016.2
20260504044053 46 0 0.0 0.0 0.00 0.00 0.00 68 1016.0
20260504043553 46 0 0.0 0.0 0.00 0.00 0.00 68 1016.1
20260504043100 46 0 0.0 0.0 0.00 0.00 0.00 68 1016.0
20260504042554 46 0 0.0 0.0 0.00 0.00 0.00 67 1016.0
20260504042053 46 0 0.0 0.0 0.00 0.00 0.00 67 1016.0
20260504041552 46 0 0.0 0.0 0.00 0.00 0.00 68 1015.9
20260504041053 46 0 0.0 0.0 0.00 0.00 0.00 67 1015.9
20260504040553 46 0 0.0 0.0 0.00 0.00 0.00 68 1015.7
20260504040105 46 0 0.0 0.0 0.00 0.00 0.00 68 1015.6
20260504035551 47 0 0.0 0.0 0.00 0.00 0.00 67 1015.8
20260504035056 47 0 0.0 0.0 0.00 0.00 0.00 66 1015.7
20260504034553 47 0 0.0 0.0 0.00 0.00 0.00 66 1015.6
20260504034054 47 0 0.0 0.0 0.00 0.00 0.00 67 1015.6
20260504033553 47 0 0.0 0.0 0.00 0.00 0.00 67 1015.7
20260504033057 47 0 0.0 0.0 0.00 0.00 0.00 67 1015.6
20260504032554 47 0 0.0 0.0 0.00 0.00 0.00 66 1015.5
20260504032056 47 0 0.0 0.0 0.00 0.00 0.00 66 1015.4
20260504031623 47 0 0.0 0.0 0.00 0.00 0.00 66 1015.4
20260504031053 47 0 0.0 0.0 0.00 0.00 0.00 66 1015.4
20260504030553 47 0 0.0 0.0 0.00 0.00 0.00 67 1015.5
20260504030054 47 0 0.0 0.0 0.00 0.00 0.00 67 1015.4
20260504025550 47 0 0.0 0.0 0.00 0.00 0.00 66 1015.5
20260504025056 47 0 0.0 0.0 0.00 0.00 0.00 66 1015.5
20260504024553 47 0 0.0 0.0 0.00 0.00 0.00 66 1015.4
20260504024053 47 0 0.0 0.0 0.00 0.00 0.00 66 1015.5
20260504023553 48 0 0.0 0.0 0.00 0.00 0.00 66 1015.4
20260504023055 48 0 0.0 0.0 0.00 0.00 0.00 65 1015.4
20260504022552 48 0 0.0 0.0 0.00 0.00 0.00 64 1015.5
20260504022053 48 0 0.0 0.0 0.00 0.00 0.00 63 1015.5
20260504021605 48 0 0.0 0.0 0.00 0.00 0.00 63 1015.5
20260504021053 48 0 0.0 0.0 0.00 0.00 0.00 63 1015.4
20260504020553 49 0 0.0 0.0 0.00 0.00 0.00 63 1015.4
20260504020051 49 323 0.0 0.0 0.00 0.00 0.00 63 1015.4
20260504015554 49 323 0.0 0.0 0.00 0.00 0.00 61 1015.4
20260504015054 49 0 0.0 0.0 0.00 0.00 0.00 61 1015.4
20260504014552 49 0 0.0 0.0 0.00 0.00 0.00 61 1015.3
20260504014053 49 0 0.0 0.0 0.00 0.00 0.00 60 1015.2
20260504013553 50 0 0.0 0.0 0.00 0.00 0.00 59 1015.3
20260504013102 50 0 0.0 0.0 0.00 0.00 0.00 59 1015.3
20260504012556 50 323 0.0 0.0 0.00 0.00 0.00 58 1015.2
20260504012051 50 0 0.0 0.0 0.00 0.00 0.00 58 1015.2
20260504011557 50 0 0.0 0.0 0.00 0.00 0.00 57 1015.1
20260504011053 50 0 0.0 0.0 0.00 0.00 0.00 57 1015.1
20260504010553 50 0 0.0 0.0 0.00 0.00 0.00 57 1015.0
20260504010113 51 0 0.0 0.0 0.00 0.00 0.00 57 1014.9
20260504005554 51 0 0.0 0.0 0.00 0.00 0.00 56 1014.9
20260504005051 51 323 0.0 0.0 0.00 0.00 0.00 56 1014.9
20260504004558 51 323 0.0 0.0 0.00 0.00 0.00 54 1014.9
20260504004054 52 323 0.0 0.0 0.00 0.00 0.00 54 1014.7
20260504003551 52 0 0.0 0.0 0.00 0.00 0.00 54 1014.7
20260504003055 52 0 0.0 0.0 0.00 0.00 0.00 53 1014.7
20260504002553 53 0 0.0 0.0 0.00 0.00 0.00 53 1014.6
20260504002053 53 323 0.0 0.0 0.00 0.00 0.00 52 1014.5
20260504001609 54 0 0.0 0.0 0.00 0.00 0.00 51 1014.5
20260504001055 54 0 0.0 0.0 0.00 0.00 0.00 50 1014.4
20260504000552 55 0 0.0 0.0 0.00 0.00 0.00 49 1014.3
20260504000059 55 323 0.0 0.0 0.00 0.00 0.00 48 1014.3
20260503235554 56 0 0.0 0.0 0.00 0.00 0.00 46 1014.3
20260503235053 56 0 0.0 0.0 0.00 0.00 0.00 46 1014.2
20260503234554 57 0 0.0 0.0 0.00 0.00 0.00 45 1014.2
20260503234054 57 0 0.0 0.0 0.00 0.00 0.00 44 1014.3
20260503233557 58 0 0.0 0.0 0.00 0.00 0.00 43 1014.2
20260503233058 58 0 0.0 1.0 0.00 0.00 0.00 43 1014.2
20260503232553 58 0 0.0 2.0 0.00 0.00 0.00 41 1014.2
20260503232053 59 0 0.0 3.0 0.00 0.00 0.00 43 1014.3
20260503231556 59 323 1.0 3.0 0.00 0.00 0.00 41 1014.3
20260503231054 59 330 1.0 5.0 0.00 0.00 0.00 40 1014.2
20260503230557 59 306 1.0 5.0 0.00 0.00 0.00 44 1014.2
20260503230056 59 245 1.0 6.0 0.00 0.00 0.00 43 1014.0
20260503225553 59 323 1.0 6.0 0.00 0.00 0.00 43 1014.1
20260503225057 59 311 2.0 6.0 0.00 0.00 0.00 41 1014.0
20260503224558 59 333 2.0 5.0 0.00 0.00 0.00 45 1014.1
20260503224053 59 0 2.0 6.0 0.00 0.00 0.00 42 1014.0
20260503223553 59 311 1.0 6.0 0.00 0.00 0.00 41 1014.1
20260503223054 59 266 2.0 6.0 0.00 0.00 0.00 42 1014.1
20260503222553 59 30 1.0 7.0 0.00 0.00 0.00 40 1014.0
20260503222053 59 325 2.0 7.0 0.00 0.00 0.00 40 1014.1
20260503221556 59 254 3.0 7.0 0.00 0.00 0.00 41 1014.1
20260503221054 59 316 2.0 6.0 0.00 0.00 0.00 40 1014.0
20260503220553 59 323 2.0 6.0 0.00 0.00 0.00 40 1014.0
20260503220054 59 310 1.0 9.0 0.00 0.00 0.00 42 1014.1
20260503215553 59 323 1.0 9.0 0.00 0.00 0.00 40 1014.1
20260503215053 59 326 5.0 11.0 0.00 0.00 0.00 39 1014.1
20260503214557 59 315 3.0 11.0 0.00 0.00 0.00 42 1014.2
20260503214057 59 311 3.0 11.0 0.00 0.00 0.00 40 1014.0
20260503213553 59 316 2.0 6.0 0.00 0.00 0.00 42 1014.0
20260503213125 59 291 1.0 4.0 0.00 0.00 0.00 43 1013.9
20260503212556 59 319 1.0 7.0 0.00 0.00 0.00 41 1013.9
20260503212056 59 272 1.0 7.0 0.00 0.00 0.00 42 1014.0
20260503211619 59 326 2.0 7.0 0.00 0.00 0.00 40 1014.0
20260503211053 58 297 3.0 10.0 0.00 0.00 0.00 41 1013.9
20260503210555 58 0 2.0 10.0 0.00 0.00 0.00 40 1013.8
20260503210054 58 49 2.0 8.0 0.00 0.00 0.00 40 1014.0
20260503205554 58 307 3.0 8.0 0.00 0.00 0.00 41 1013.9
20260503205051 59 307 1.0 7.0 0.00 0.00 0.00 41 1013.9
20260503204608 59 331 1.0 7.0 0.00 0.00 0.00 43 1014.0
20260503204051 58 309 3.0 8.0 0.00 0.00 0.00 40 1013.9
20260503203553 58 324 2.0 8.0 0.00 0.00 0.00 43 1013.9
20260503203057 58 289 3.0 10.0 0.00 0.00 0.00 40 1014.0
20260503202553 58 0 2.0 10.0 0.00 0.00 0.00 40 1014.1
20260503202053 58 309 1.0 8.0 0.00 0.00 0.00 41 1014.0
20260503201556 58 294 2.0 8.0 0.00 0.00 0.00 40 1014.1
20260503201055 58 276 2.0 7.0 0.00 0.00 0.00 39 1014.1
20260503200553 58 320 4.0 8.0 0.00 0.00 0.00 39 1014.2
20260503200059 58 275 2.0 9.0 0.00 0.00 0.00 40 1014.3
20260503195553 58 297 4.0 9.0 0.00 0.00 0.00 41 1014.3
20260503195101 57 4 4.0 9.0 0.00 0.00 0.00 39 1014.3
20260503194553 57 309 2.0 9.0 0.00 0.00 0.00 40 1014.3
20260503194128 57 304 5.0 9.0 0.00 0.00 0.00 39 1014.3
20260503193554 57 283 3.0 7.0 0.00 0.00 0.00 42 1014.2
20260503193057 57 300 2.0 8.0 0.00 0.00 0.00 40 1014.2
20260503192552 57 245 2.0 11.0 0.00 0.00 0.00 40 1014.3
20260503192052 57 304 3.0 11.0 0.00 0.00 0.00 39 1014.4
20260503191603 57 330 2.0 7.0 0.00 0.00 0.00 41 1014.3
20260503191054 57 307 2.0 9.0 0.00 0.00 0.00 42 1014.3
20260503190556 56 259 4.0 9.0 0.00 0.00 0.00 40 1014.4
20260503190054 56 248 2.0 12.0 0.00 0.00 0.00 42 1014.3
20260503185554 55 66 2.0 12.0 0.00 0.00 0.00 41 1014.5
20260503185053 56 54 3.0 9.0 0.00 0.00 0.00 40 1014.6
20260503184623 56 32 2.0 9.0 0.00 0.00 0.00 41 1014.8
20260503184053 55 315 3.0 8.0 0.00 0.00 0.00 42 1014.9
20260503183554 55 277 4.0 9.0 0.00 0.00 0.00 41 1014.9
20260503183105 55 232 3.0 14.0 0.00 0.00 0.00 42 1014.8
20260503182552 55 327 4.0 14.0 0.00 0.00 0.00 43 1014.9
20260503182052 55 304 5.0 14.0 0.00 0.00 0.00 44 1014.9
20260503181553 55 329 2.0 11.0 0.00 0.00 0.00 44 1014.9
20260503181052 55 307 2.0 11.0 0.00 0.00 0.00 44 1015.0
20260503180553 54 330 1.0 9.0 0.00 0.00 0.00 44 1015.0
20260503180058 54 314 4.0 9.0 0.00 0.00 0.00 42 1015.0
20260503175551 54 317 3.0 8.0 0.00 0.00 0.00 43 1015.1
20260503175054 54 342 1.0 9.0 0.00 0.00 0.00 43 1015.1
20260503174610 54 274 3.0 9.0 0.00 0.00 0.00 43 1015.1